ANGOSAT 2

Last updated on Mon Jun 30 2025 00:02:47 GMT+0000 (Coordinated Universal Time)

1 54033U 22131A 25180.50153176 .00000131 00000+0 00000+0 0 9991 2 54033 0.0252 122.5738 0001271 103.0194 255.7631 1.00271564 9939
UTC large
Height (km)
Speed (km/s)
/
Latitude / Longitude
Inclination (degrees)
Orbital Period (minutes)
Azimuth
Elevation
Range (km)
Doppler Factor

Next 0 passes for location: London (51.5072 / 0.1276)

Sorry there are no passes over London.